Explore Kentucky Lake

Lake Conditions
Facebook Twitter Instagram Google YouTube Contact Us About Us
Switch Mobile/Desktop

Previous Kentucky Lake Levels

Home | Lake Conditions | Previous Kentucky Lake Levels

Kentucky Lake Stages Over Last 48 Hours

The following table shows the previous 48 hours for Kentucky Lake.

Date/Time Lake River Discharge (cfs)
11/17/2018 5 PM CST 357.13' 319.43' 127,997
11/17/2018 4 PM CST 357.17' 319.39' 128,155
11/17/2018 3 PM CST 357.17' 319.33' 128,181
11/17/2018 2 PM CST 357.17' 319.33' 128,165
11/17/2018 1 PM CST 357.18' 319.32' 128,190
11/17/2018 12 PM CST 357.17' 319.30' 128,331
11/17/2018 11 AM CST 357.16' 319.46' 128,178
11/17/2018 10 AM CST 357.12' 319.40' 128,049
11/17/2018 9 AM CST 357.11' 319.36' 127,759
11/17/2018 8 AM CST 357.10' 319.52' 127,844
11/17/2018 7 AM CST 357.09' 319.48' 127,750
11/17/2018 6 AM CST 357.09' 319.54' 127,654
11/17/2018 5 AM CST 357.08' 319.52' 127,626
11/17/2018 4 AM CST 357.09' 319.51' 127,569
11/17/2018 3 AM CST 357.08' 319.60' 127,479
11/17/2018 2 AM CST 357.08' 319.71' 127,398
11/17/2018 1 AM CST 357.08' 319.60' 127,386
11/17/2018 12 AM CST 357.07' 319.66' 127,298
11/16/2018 11 PM CST 357.06' 319.64' 127,267
11/16/2018 10 PM CST 357.06' 319.67' 127,120
11/16/2018 9 PM CST 357.06' 319.73' 127,077
11/16/2018 8 PM CST 357.05' 319.72' 127,110
11/16/2018 7 PM CST 357.06' 319.74' 127,067
11/16/2018 6 PM CST 357.07' 319.78' 126,929
11/16/2018 5 PM CST 357.07' 319.85' 126,982
11/16/2018 4 PM CST 357.07' 319.82' 126,908
11/16/2018 3 PM CST 357.06' 319.77' 126,826
11/16/2018 2 PM CST 357.05' 319.79' 126,749
11/16/2018 1 PM CST 357.04' 319.72' 126,625
11/16/2018 12 PM CST 357.03' 319.88' 126,658
11/16/2018 11 AM CST 357.06' 319.89' 126,764
11/16/2018 10 AM CST 357.07' 319.92' 126,884
11/16/2018 9 AM CST 357.08' 319.91' 126,949
11/16/2018 8 AM CST 357.07' 319.88' 126,964
11/16/2018 7 AM CST 357.09' 319.86' 127,070
11/16/2018 6 AM CST 357.10' 319.91' 127,166
11/16/2018 5 AM CST 357.10' 319.90' 127,057
11/16/2018 4 AM CST 357.10' 320.03' 127,029
11/16/2018 3 AM CST 357.12' 319.89' 127,064
11/16/2018 2 AM CST 357.12' 319.94' 126,723
11/16/2018 1 AM CST 357.10' 319.94' 126,645
11/16/2018 12 AM CST 357.11' 319.98' 126,590
11/15/2018 11 PM CST 357.09' 320.00' 126,467
11/15/2018 10 PM CST 357.09' 319.94' 126,422
11/15/2018 9 PM CST 357.08' 319.95' 126,073
11/15/2018 8 PM CST 357.06' 320.05' 126,004
11/15/2018 7 PM CST 357.06' 320.05' 126,076
11/15/2018 6 PM CST 357.05' 320.05' 126,015
11/15/2018 5 PM CST 357.06' 320.24' 126,058
11/15/2018 4 PM CST 357.07' 320.12' 126,122
11/15/2018 3 PM CST 357.09' 320.15' 126,326
11/15/2018 2 PM CST 357.10' 320.08' 126,383
11/15/2018 1 PM CST 357.11' 320.21' 126,327
11/15/2018 12 PM CST 357.10' 320.16' 126,165
11/15/2018 11 AM CST 357.14' 320.19' 126,778
11/15/2018 10 AM CST 357.16' 320.17' 127,049
11/15/2018 9 AM CST 357.17' 320.18' 125,396
11/15/2018 8 AM CST 357.18' 320.14' 128,941
11/15/2018 7 AM CST 357.19' 320.24' 129,094
11/15/2018 6 AM CST 357.21' 320.14' 129,206
11/15/2018 5 AM CST 357.21' 320.07' 129,143
11/15/2018 4 AM CST 357.21' 320.04' 129,213
11/15/2018 3 AM CST 357.20' 320.10' 129,248
11/15/2018 2 AM CST 357.20' 320.24' 129,371
11/15/2018 1 AM CST 357.21' 320.09' 129,558

Elk
Photo by Melodie Cunningham

This majestic elk eyes the camera cautiously. To see bulls with fully developed racks, visit the Elk and Bison Prairie in the fall!